{"data":{"norad_id":57931,"epoch":"2026-05-25T00:57:29.900160Z","epoch_age_seconds":64869,"freshness":"FRESH","line1":"1 57931U 23147U   26145.03992940 -.00000634  00000+0 -13519-4 0  9993","line2":"2 57931  43.0045 257.5154 0001719 255.6510 104.4151 15.27581276148265","mean_motion":15.27581276,"eccentricity":0.0001719,"inclination_deg":43.0045,"raan_deg":257.5154,"arg_perigee_deg":255.651,"mean_anomaly_deg":104.4151,"bstar":-1.3519e-5,"rev_number":14826,"period_min":94.266669971935,"perigee_km":481.86583800616,"apogee_km":484.22471247239,"semimajor_km":6861.1822752393,"source":"CELESTRAK","updated_at":"2026-05-25T13:38:18.459328Z"}}